Weather in Kirsanov

Russia / Tambov Oblast     52°39′02″N   42°43′43″E
temp.,
°C
wind,
m/s
gust,
m/s
humid.,
%
clouds,
%
prec.,
mm/h
press.,
hPa
HPBL,
m
28 february, sun
sun2800:00−11nnw499499 0.0 1012282
03:00−13nw359560 0.0 1013101
06:00−14nw35956 0.0 1014106
09:00−12nw46943 0.0 1015262
12:00−10nw469079 0.0 1015433
15:00−8nw359089 0.1 1016530
18:00−9nw349596 0.1 101796
21:00−11nnw339694 0.1 101947
1 march, mon
mon100:00−13n239558 0.0 102122
03:00−14n229529 0.0 102220
06:00−15nnw229514 0.0 102321
09:00−12nw129417 0.0 102674
12:00−9wnw238955 0.0 1026272
15:00−7w249271 0.0 1025276
18:00−8wsw349445 0.0 102458
21:00−7wsw5119561 0.0 1023245
2 march, tue
tue200:00−3wsw61392100 0.0 1019503
03:00−3wsw71395100 0.4 1016517
06:00−2wsw71496100 0.7 1012614
09:000wsw81497100 1.2 1008771
12:000wnw71398100 0.7 1006723
15:000nw61197100 1.1 1006683
18:00−1nw5119394 0.1 1007404
21:00−2wnw5129483 0.2 1008358
3 march, wed
wed300:00−3wnw6129499 0.1 1008512
03:00−4nw5109594 0.2 1009509
06:00−4nw6119495 0.1 1009525
09:00−4nw7129194 0.3 1011712
12:00−4nw71187100 0.1 1013907
15:00−3nw71186100 0.2 10141055
18:00−5nw5128897 0.1 1015433
21:00−7nw5129252 0.1 1018296
4 march, thu
thu400:00−9wnw47946 0.0 1019132
03:00−9wnw34966 0.0 101985
06:00−9wsw479659 0.0 1019125
09:00−6wsw5119229 0.0 1018329
12:00−2wsw7138738 0.0 1016682
15:00−1wsw7138563 0.0 1014661
18:00−2sw61585100 0.0 1012492
21:00−2sw71785100 0.0 1011562